Location: Mentone
(34.5413°N, 85.5351°W)
Time: 17:07:27
(UTC-05:00)

ATLAS 5 CENTAUR R/B - Visible Passes

Search period start: 28 May 2016 00:00
Search period end: 07 June 2016 00:00
Orbit: 669 x 992 km, 63.4° (Epoch: 24 April)

Date Brightness Start Highest point End Pass type
(mag) Time Alt. Az. Time Alt. Az. Time Alt. Az.
28 May 1.7 03:13:59 65° SW 03:14:42 87° WNW 03:19:51 10° NNE visible
28 May 4.1 04:58:15 10° WNW 05:00:15 12° NW 05:02:18 10° NNW visible
29 May 1.6 02:55:40 84° S 02:55:48 87° ESE 03:00:56 10° NNE visible
29 May 4.1 04:39:01 10° WNW 04:41:17 13° NW 04:43:38 10° NNW visible
30 May 1.9 02:37:19 74° ENE 02:37:19 74° ENE 02:42:02 10° NNE visible
30 May 4.1 04:19:48 10° WNW 04:22:20 14° NW 04:24:56 10° N visible
31 May 2.3 02:18:55 58° NE 02:18:55 58° NE 02:23:08 10° NE visible
31 May 4.0 04:00:38 10° WNW 04:03:22 15° NW 04:06:12 10° N visible
01 Jun 2.7 02:00:28 47° NE 02:00:28 47° NE 02:04:13 10° NE visible
01 Jun 4.0 03:42:01 12° WNW 03:44:24 15° NW 03:47:28 10° N visible
02 Jun 3.0 01:41:59 39° NE 01:41:59 39° NE 01:45:18 10° NE visible
02 Jun 3.9 03:23:31 13° WNW 03:25:28 16° NW 03:28:41 10° N visible
03 Jun 3.3 01:23:27 33° NE 01:23:27 33° NE 01:26:22 10° NE visible
03 Jun 3.9 03:04:59 15° WNW 03:06:30 17° NW 03:09:55 10° N visible
04 Jun 3.5 01:04:53 28° NE 01:04:53 28° NE 01:07:26 10° NE visible
04 Jun 3.8 02:46:25 17° WNW 02:47:33 18° NW 02:51:08 10° N visible
05 Jun 3.7 00:46:16 25° NE 00:46:16 25° NE 00:48:30 10° NE visible
05 Jun 3.8 02:27:47 19° WNW 02:28:36 19° NW 02:32:20 10° N visible
06 Jun 3.8 00:27:36 22° NE 00:27:36 22° NE 00:29:33 10° NE visible
06 Jun 3.7 02:09:07 20° NW 02:09:39 21° NW 02:13:31 10° N visible
